sat.trackr.live / text

‹ back to catalog

STARLINK-35910

NORAD 67184 · 2025-303X

PAYLOAD ACTIVE UNKNOWN

§ Identity

Operator
Country
US
Launch date
2025-12-17
Launch site
AFETR
Launch vehicle
Mass (kg)
RCS (m²)

Purposes: comms

External: N2YO · Heavens-Above · Gunter

§ Orbital elements

Epoch: 2026-09-20T02:35:55.042944Z

Period
94.27 min
Inclination
43.0007°
Eccentricity
0.0001196
Mean motion
15.27584313 rev/d
Perigee alt
482.2 km
Apogee alt
483.9 km
Semi-major
6,861.2 km
B*
2.6338e-4
RAAN
292.3340°
Arg perigee
273.1718°
Mean anomaly
86.8997°
Rev number
4,247

§ Raw data

STARLINK-359101 67184U 25303X   26263.10827596  .00006993  00000+0  26338-3 0  99972 67184  43.0007 292.3340 0001196 273.1718  86.8997 15.27584313 42474

JSON: /api/v1/satellites/67184 · /tle

For live sub-satellite position, see the globe view (requires WebGL).

§ Visibility from observer

Set your observer location to see the next 7 days of passes ≥ 10°. The values pass through the URL so the page stays shareable.

No JS? Fill the form by hand. The geolocation button needs JavaScript.